[[{"header":{"parameterUnit":"m.s-1","parameterCategory":1,"la1":30.2991,"la2":30.254,"lo1":-89.0895,"lo2":-89.0444,"dy":0.0017,"dx":0.0017,"nx":28,"ny":28,"refTime":"2024-02-11T03:00:00:Z","depth":0,"parameterNumber":2,"parameterNumberName":"U-component_of_WINDS"},"data":[0,0,0,0,0,0,0,0,0,0,0,0,0,0,0,0,0,0,0,0,0,0,0,0,0,0,0,0,0,0,0,0,0,0,0,0,0,0,0,0,0,0,0,0,0,0,0,0,0,0,0,0,0,0,0,0,0,0,8.2061,8.2063,0,8.2233,8.2235,8.2237,8.2164,8.216,8.2156,8.2152,8.2329,8.2337,8.2346,0,0,0,0,0,0,0,0,0,0,0,0,0,8.1672,8.168,8.2061,8.2063,8.2066,8.2233,8.2235,8.2238,8.2165,8.216,8.2155,8.215,8.2326,8.2336,8.2347,0,0,0,0,0,0,0,0,0,0,0,0,0,8.1843,8.1682,8.2061,8.2049,8.205,8.2233,8.2235,8.2238,8.2166,8.216,8.2154,8.2148,8.2323,8.2335,8.2348,8.2552,0,0,8.2387,8.2393,0,0,0,0,0,0,0,0,8.1833,8.1857,8.2049,8.2051,8.2052,8.2171,8.2163,8.2344,8.2168,8.2122,8.2152,8.2145,8.2282,8.2297,8.2343,8.256,8.2568,8.2389,8.2396,8.2402,8.2406,0,0,0,0,0,0,0,8.1821,8.1849,8.2129,8.2052,8.2054,8.2037,8.2054,8.2197,8.2235,8.2126,8.2121,8.2142,8.2281,8.2331,8.2347,8.2571,8.2388,8.24,8.2408,8.2413,8.2967,8.2973,0,0,0,0,0,0,8.1809,8.184,8.2124,8.2134,8.1925,8.2049,8.2068,8.2139,8.2233,8.2241,8.2147,8.2138,8.2312,8.2332,8.2353,8.26,8.2402,8.2414,8.2421,8.296,8.2968,8.2976,0,0,0,0,0,0,8.1801,8.1835,8.2117,8.1986,8.202,8.2062,8.2142,8.2146,8.2196,8.2249,8.2256,8.2191,8.2308,8.2335,8.2504,8.2605,8.242,8.2431,8.2951,8.2962,8.2972,8.3094,0,0,0,0,0,0,8.179,8.1833,8.191,8.1988,8.2028,8.2264,8.2148,8.2154,8.2218,8.2208,8.2292,8.23,8.2305,8.2485,8.2517,8.2619,8.2441,8.2943,8.2956,8.2969,8.3081,8.3107,8.313,0,0,0,0,0,8.1777,8.1937,8.1914,8.1949,8.2125,8.227,8.2293,8.2295,8.2226,8.2305,8.234,8.2298,8.2589,8.2503,8.2538,8.2646,8.2936,8.2952,8.2968,8.307,8.3102,8.3129,0,0,0,0,0,0,8.1869,8.1947,8.1922,8.2113,8.2186,8.2258,8.2356,8.2328,8.2422,8.2409,8.2408,8.2428,8.2603,8.2641,8.2544,8.285,8.2752,8.2776,8.2818,8.2849,8.2873,8.286,8.2452,0,0,0,0,0,8.1911,8.2022,8.2084,8.2246,8.2284,8.2315,8.2378,8.2374,8.2449,8.2479,8.2526,8.2602,8.271,8.2782,8.2884,8.3086,8.3105,8.3178,8.3203,8.3222,8.3243,8.3355,8.3388,8.3028,8.3027,8.3027,0,0,8.2,8.2057,8.2126,8.2267,8.2322,8.2438,8.2341,8.2467,8.2553,8.2498,8.2661,8.2699,8.2783,8.297,8.3055,8.3007,8.3347,8.3242,8.3258,8.3267,8.3374,8.3408,8.3439,8.3038,8.3036,8.3035,0,0,8.2221,8.2275,8.2416,8.2475,8.2561,8.2581,8.2615,8.2692,8.2715,8.2879,8.2841,8.2944,8.313,8.3193,8.3249,8.3497,8.3463,8.3531,8.3658,8.3767,8.3795,8.3821,8.3911,8.3943,8.3551,8.3551,8.3551,0,8.2321,8.2493,8.2493,8.2623,8.2687,8.2643,8.2788,8.2845,8.296,8.3006,8.2951,8.3186,8.3239,8.3442,8.3503,8.3549,8.3589,8.3521,8.3791,8.3817,8.384,8.3926,8.396,8.3559,8.3558,8.3557,8.3557,0,8.2613,8.2733,8.2837,8.2951,8.3026,8.3163,8.3184,8.3261,8.3251,8.3277,8.3445,8.3508,8.3624,8.3672,8.3663,8.3874,8.3842,8.379,8.3692,8.3882,8.3963,8.3996,8.357,8.3567,8.3565,8.3563,0,0,8.2895,8.3008,8.3047,8.3099,8.3192,8.3286,8.3421,8.3535,8.3602,8.3683,8.3798,8.3959,8.3912,8.3975,8.3973,8.4069,8.4264,8.4006,8.4008,8.4052,8.4503,8.4542,8.458,8.4242,8.4249,8.4253,8.4496,0,8.3124,8.3362,8.3367,8.3585,8.3698,8.3659,8.3778,8.3849,8.3877,8.3978,8.4009,8.4123,8.4052,8.4091,8.4184,8.4221,8.4355,8.4203,8.435,8.4355,8.433,8.4622,8.4663,8.4889,8.4528,8.4533,8.4537,0,8.3423,8.3515,8.3745,8.3825,8.3872,8.3978,8.4084,8.418,8.4261,8.4275,8.4348,8.4332,8.4472,8.4371,8.4565,8.4462,8.4522,8.455,8.4559,8.4573,8.4458,8.4645,8.4961,8.4995,8.4586,8.4582,8.4579,0,8.3608,8.379,8.3951,8.3997,8.4093,8.4169,8.4213,8.4287,8.4356,8.4449,8.4494,8.4602,8.4661,8.4746,8.476,8.4684,8.4956,8.4854,8.4973,8.4973,8.5031,8.5027,8.5363,8.507,8.5069,8.5069,8.5068,0,8.3863,8.4006,8.4036,8.4135,8.4295,8.43,8.4457,8.4495,8.4562,8.4669,8.4643,8.4744,8.4757,8.4862,8.4875,8.5035,8.5062,8.5078,8.508,8.5081,8.5079,8.512,8.5105,8.5078,8.5076,8.5074,8.5072,0,8.4097,8.4122,8.4296,8.4373,8.4396,8.4511,8.4577,8.4673,8.47,8.4836,8.4868,8.491,8.5033,8.5056,8.5201,8.5209,8.54,8.5386,8.5373,8.5372,8.5489,8.5478,8.5863,8.5914,8.5587,8.559,8.5593,0,8.4258,8.4367,8.4457,8.4527,8.4575,8.4687,8.4758,8.4768,8.4843,8.4944,8.5028,8.5148,8.5245,8.5443,8.5487,8.5598,8.5587,8.5714,8.5603,8.5602,8.559,8.5584,8.5595,8.5735,8.5739,8.5742,8.5744,0,8.4543,8.4551,8.4653,8.4762,8.4847,8.4932,8.5013,8.5072,8.5093,8.5179,8.5304,8.538,8.5528,8.5648,8.576,8.5805,8.578,8.5779,8.5812,8.5814,8.5803,8.5812,8.5432,8.577,8.5767,8.5765,8.5764,8.5763,8.4747,8.4842,8.4921,8.5037,8.5099,8.5176,8.5271,8.531,8.5414,8.5536,8.5536,8.5674,8.5754,8.5901,8.5954,8.6063,8.6022,8.607,8.6083,8.6095,8.6106,8.5786,8.6083,8.6082,8.6082,8.6081,8.6081,0,8.5031,8.508,8.5187,8.5302,8.5394,8.5361,8.545,8.5529,8.565,8.5727,8.5823,8.5968,8.6085,8.6139,8.6255,8.6332,8.6323,8.6362,8.6357,8.6368,8.6135,8.6095,8.6367,8.6367,8.6367,8.6367,8.6367,8.6367,8.519,8.5351,8.5369,8.5562,8.561,8.5745,8.5798,8.587,8.5931,8.6095,8.6192,8.6226,8.6295,8.6416,8.6522,8.6535,8.6579,8.6624,8.6632,8.6413,8.6384,8.6356,8.6319,8.6634,8.6634,8.6856,8.6858,8.686]},{"header":{"parameterUnit":"m.s-1","parameterCategory":1,"la1":30.2991,"la2":30.254,"lo1":-89.0895,"lo2":-89.0444,"dy":0.0017,"dx":0.0017,"nx":28,"ny":28,"refTime":"2024-02-11T03:00:00:Z","depth":0,"parameterNumber":3,"parameterNumberName":"V-component_of_WINDS"},"data":[0,0,0,0,0,0,0,0,0,0,0,0,0,0,0,0,0,0,0,0,0,0,0,0,0,0,0,0,0,0,0,0,0,0,0,0,0,0,0,0,0,0,0,0,0,0,0,0,0,0,0,0,0,0,0,0,0,0,-4.1837,-4.1838,0,-4.1907,-4.1908,-4.1909,-4.1879,-4.1877,-4.1875,-4.1874,-4.1944,-4.1948,-4.1951,0,0,0,0,0,0,0,0,0,0,0,0,0,-4.1677,-4.168,-4.1837,-4.1838,-4.1839,-4.1907,-4.1908,-4.1909,-4.1879,-4.1877,-4.1875,-4.1873,-4.1943,-4.1947,-4.1951,0,0,0,0,0,0,0,0,0,0,0,0,0,-4.1747,-4.1681,-4.1837,-4.1832,-4.1832,-4.1907,-4.1908,-4.1909,-4.1879,-4.1877,-4.1874,-4.1872,-4.1942,-4.1947,-4.1952,-4.2035,0,0,-4.1968,-4.197,0,0,0,0,0,0,0,0,-4.1743,-4.1752,-4.1832,-4.1832,-4.1833,-4.1882,-4.1877,-4.1951,-4.188,-4.1861,-4.1874,-4.1871,-4.1925,-4.1932,-4.195,-4.2038,-4.2041,-4.1968,-4.1971,-4.1974,-4.1975,0,0,0,0,0,0,0,-4.1738,-4.1749,-4.1865,-4.1833,-4.1834,-4.1826,-4.1833,-4.1891,-4.1907,-4.1863,-4.1861,-4.187,-4.1925,-4.1946,-4.1952,-4.2042,-4.1968,-4.1973,-4.1976,-4.1978,-4.2202,-4.2205,0,0,0,0,0,0,-4.1733,-4.1745,-4.1862,-4.1867,-4.1781,-4.1831,-4.1839,-4.1868,-4.1906,-4.1909,-4.1872,-4.1868,-4.1938,-4.1946,-4.1954,-4.2054,-4.1974,-4.1978,-4.1981,-4.2199,-4.2203,-4.2206,0,0,0,0,0,0,-4.173,-4.1744,-4.1859,-4.1806,-4.182,-4.1837,-4.187,-4.1871,-4.1891,-4.1913,-4.1915,-4.189,-4.1936,-4.1947,-4.2015,-4.2056,-4.1981,-4.1985,-4.2196,-4.2201,-4.2204,-4.2254,0,0,0,0,0,0,-4.1725,-4.1743,-4.1774,-4.1807,-4.1823,-4.192,-4.1872,-4.1874,-4.1901,-4.1896,-4.193,-4.1933,-4.1935,-4.2008,-4.202,-4.2062,-4.199,-4.2192,-4.2198,-4.2203,-4.2249,-4.226,-4.2269,0,0,0,0,0,-4.172,-4.1785,-4.1776,-4.179,-4.1863,-4.1922,-4.1931,-4.1932,-4.1904,-4.1936,-4.195,-4.1932,-4.205,-4.2015,-4.2029,-4.2073,-4.219,-4.2196,-4.2203,-4.2245,-4.2258,-4.2269,0,0,0,0,0,0,-4.1757,-4.1789,-4.178,-4.1857,-4.1887,-4.1917,-4.1957,-4.1946,-4.1984,-4.1978,-4.1977,-4.1985,-4.2056,-4.2071,-4.2032,-4.2155,-4.2116,-4.2125,-4.2143,-4.2155,-4.2165,-4.216,-4.1994,0,0,0,0,0,-4.1774,-4.182,-4.1846,-4.1912,-4.1927,-4.194,-4.1966,-4.1964,-4.1995,-4.2007,-4.2026,-4.2056,-4.21,-4.2128,-4.217,-4.2252,-4.2259,-4.2289,-4.2298,-4.2307,-4.2315,-4.236,-4.2373,-4.2227,-4.2227,-4.2227,0,0,-4.181,-4.1834,-4.1862,-4.192,-4.1943,-4.199,-4.1951,-4.2002,-4.2037,-4.2014,-4.208,-4.2096,-4.2129,-4.2205,-4.2239,-4.222,-4.2357,-4.2315,-4.2321,-4.2325,-4.2368,-4.2381,-4.2394,-4.2231,-4.2231,-4.223,0,0,-4.19,-4.1922,-4.198,-4.2004,-4.204,-4.2048,-4.2062,-4.2094,-4.2103,-4.2169,-4.2154,-4.2195,-4.227,-4.2295,-4.2318,-4.2419,-4.2404,-4.2432,-4.2484,-4.2528,-4.2539,-4.2549,-4.2586,-4.2598,-4.244,-4.2441,-4.2441,0,-4.194,-4.2011,-4.2011,-4.2065,-4.2091,-4.2073,-4.2132,-4.2155,-4.2202,-4.2221,-4.2199,-4.2293,-4.2315,-4.2396,-4.2421,-4.244,-4.2456,-4.2428,-4.2538,-4.2548,-4.2557,-4.2592,-4.2605,-4.2444,-4.2443,-4.2443,-4.2443,0,-4.2059,-4.2108,-4.2151,-4.2197,-4.2228,-4.2284,-4.2293,-4.2324,-4.232,-4.2331,-4.2399,-4.2424,-4.2471,-4.249,-4.2486,-4.2571,-4.2558,-4.2537,-4.2497,-4.2574,-4.2607,-4.262,-4.2448,-4.2447,-4.2446,-4.2445,0,0,-4.2172,-4.222,-4.2235,-4.2257,-4.2295,-4.2333,-4.2389,-4.2435,-4.2462,-4.2495,-4.2542,-4.2606,-4.2587,-4.2613,-4.2612,-4.2651,-4.2729,-4.2625,-4.2625,-4.2643,-4.2825,-4.2841,-4.2856,-4.272,-4.2723,-4.2725,-4.2822,0,-4.2265,-4.2362,-4.2365,-4.2454,-4.25,-4.2485,-4.2533,-4.2562,-4.2574,-4.2614,-4.2627,-4.2673,-4.2644,-4.266,-4.2697,-4.2712,-4.2766,-4.2705,-4.2763,-4.2765,-4.2755,-4.2873,-4.2889,-4.298,-4.2835,-4.2837,-4.2839,0,-4.2386,-4.2424,-4.2518,-4.2551,-4.257,-4.2613,-4.2656,-4.2695,-4.2728,-4.2734,-4.2763,-4.2757,-4.2814,-4.2772,-4.285,-4.2809,-4.2833,-4.2844,-4.2848,-4.2853,-4.2806,-4.2881,-4.3009,-4.3023,-4.2859,-4.2857,-4.2855,0,-4.246,-4.2535,-4.26,-4.2619,-4.2659,-4.269,-4.2708,-4.2738,-4.2766,-4.2804,-4.2822,-4.2866,-4.2889,-4.2923,-4.2929,-4.2899,-4.3008,-4.2967,-4.3014,-4.3014,-4.3037,-4.3035,-4.317,-4.3053,-4.3053,-4.3053,-4.3052,0,-4.2563,-4.2621,-4.2634,-4.2675,-4.2739,-4.2742,-4.2806,-4.2822,-4.2849,-4.2892,-4.2882,-4.2923,-4.2928,-4.297,-4.2975,-4.3039,-4.305,-4.3056,-4.3057,-4.3057,-4.3057,-4.3073,-4.3066,-4.3056,-4.3056,-4.3055,-4.3054,0,-4.2656,-4.2667,-4.2738,-4.2771,-4.278,-4.2826,-4.2854,-4.2893,-4.2904,-4.2959,-4.2972,-4.2989,-4.3039,-4.3048,-4.3106,-4.3109,-4.3186,-4.318,-4.3175,-4.3174,-4.3221,-4.3216,-4.3371,-4.3391,-4.3261,-4.3262,-4.3263,0,-4.2721,-4.2765,-4.2803,-4.2831,-4.2851,-4.2897,-4.2926,-4.2931,-4.2961,-4.3002,-4.3036,-4.3085,-4.3124,-4.3203,-4.3221,-4.3265,-4.3261,-4.3312,-4.3267,-4.3266,-4.3261,-4.3259,-4.3263,-4.332,-4.3321,-4.3323,-4.3324,0,-4.2835,-4.2839,-4.288,-4.2925,-4.296,-4.2995,-4.3028,-4.3052,-4.3061,-4.3096,-4.3147,-4.3177,-4.3237,-4.3285,-4.333,-4.3348,-4.3338,-4.3338,-4.3351,-4.3351,-4.3347,-4.335,-4.3198,-4.3334,-4.3333,-4.3332,-4.3332,-4.3331,-4.2916,-4.2955,-4.2988,-4.3035,-4.3061,-4.3092,-4.3131,-4.3147,-4.3189,-4.3239,-4.3239,-4.3295,-4.3327,-4.3386,-4.3408,-4.3451,-4.3435,-4.3454,-4.3459,-4.3464,-4.3468,-4.334,-4.346,-4.3459,-4.3459,-4.3459,-4.3459,0,-4.3029,-4.305,-4.3094,-4.3141,-4.3178,-4.3166,-4.3202,-4.3234,-4.3284,-4.3315,-4.3354,-4.3413,-4.346,-4.3482,-4.3528,-4.3559,-4.3555,-4.3571,-4.3568,-4.3573,-4.348,-4.3464,-4.3573,-4.3573,-4.3573,-4.3573,-4.3573,-4.3573,-4.3093,-4.3158,-4.3166,-4.3244,-4.3265,-4.3319,-4.3341,-4.3371,-4.3396,-4.3462,-4.3501,-4.3515,-4.3543,-4.3592,-4.3635,-4.364,-4.3657,-4.3675,-4.3678,-4.3591,-4.3579,-4.3568,-4.3553,-4.3679,-4.3679,-4.3768,-4.3768,-4.3769]}]]